Location: Fort Worth, Tx
(32.7431°N, 97.3695°W)
Time: 22:08:15
(UTC-04:00)

Explorer 7 - Visible Passes

Search period start: 15 June 2024 00:00
Search period end: 25 June 2024 00:00
Orbit: 466 x 623 km, 50.3° (Epoch: 15 June)

Date Brightness Start Highest point End Pass type
(mag) Time Alt. Az. Time Alt. Az. Time Alt. Az.
15 Jun 8.3 23:28:39 10° WNW 23:31:33 22° SW 23:32:14 21° SSW visible
16 Jun 8.8 23:21:53 10° W 23:24:05 15° SW 23:25:18 13° SSW visible
17 Jun 9.3 23:16:03 10° WSW 23:16:36 10° SW 23:17:08 10° SW visible
